This is the latest recevied weather packets stored in our database for station/object KC2WGU. If no packets are shown the sender has not sent any weather packets the latest 10 day(s).
| Time | Temp. | Humidity | Pressure | Rain* | Wind** | Luminosity | Snow |
|---|---|---|---|---|---|---|---|
| 1777472424 | 15.56° C | 67% | 1010.5 hPa | 0 mm | - | 0 W/m² | - |
| 1777471819 | 16.11° C | 67% | 1010.6 hPa | 0 mm | - | 0 W/m² | - |
| 1777471219 | 15.56° C | 68% | 1010.8 hPa | 0 mm | - | 0 W/m² | - |
| 1777470619 | 15.56° C | 68% | 1010.8 hPa | 0 mm | - | 0 W/m² | - |
| 1777470019 | 15.56° C | 68% | 1011.3 hPa | 0 mm | - | 0 W/m² | - |
| 1777469419 | 15.56° C | 67% | 1011.4 hPa | 0 mm | - | 0 W/m² | - |
| 1777468820 | 15° C | 68% | 1011.6 hPa | 0 mm | - | 0 W/m² | - |
| 1777468219 | 15° C | 66% | 1011.9 hPa | 0 mm | - | 0 W/m² | - |
| 1777467620 | 14.44° C | 68% | 1011.9 hPa | 0 mm | - | 0 W/m² | - |
| 1777467019 | 14.44° C | 69% | 1011.9 hPa | 0 mm | - | 0 W/m² | - |
| 1777466419 | 13.89° C | 68% | 1011.8 hPa | 0 mm | - | 0 W/m² | - |
| 1777465819 | 13.33° C | 72% | 1011.8 hPa | 0 mm | - | 0 W/m² | - |
| 1777465220 | 12.78° C | 74% | 1012.5 hPa | 0 mm | - | 0 W/m² | - |
| 1777464619 | 12.22° C | 72% | 1012.5 hPa | 0 mm | - | 0 W/m² | - |
| 1777464019 | 12.22° C | 72% | 1012.8 hPa | 0 mm | - | 0 W/m² | - |
| 1777463420 | 12.22° C | 72% | 1012.8 hPa | 0 mm | - | 0 W/m² | - |
| 1777462820 | 12.22° C | 73% | 1012.9 hPa | 0 mm | - | 0 W/m² | - |
| 1777462220 | 11.67° C | 72% | 1012.8 hPa | 0 mm | - | 0 W/m² | - |
| 1777461620 | 11.67° C | 72% | 1012.7 hPa | 0 mm | - | 0 W/m² | - |
| 1777461019 | 11.67° C | 72% | 1012.7 hPa | 0 mm | - | 0 W/m² | - |
| 1777460419 | 11.67° C | 73% | 1012.6 hPa | 0 mm | - | 0 W/m² | - |
| 1777459819 | 11.67° C | 72% | 1012.6 hPa | 0 mm | - | 0 W/m² | - |
| 1777459219 | 11.67° C | 73% | 1012.6 hPa | 0 mm | - | 0 W/m² | - |
| 1777458619 | 11.67° C | 72% | 1012.6 hPa | 0 mm | - | 0 W/m² | - |
| 1777458019 | 11.67° C | 72% | 1012.7 hPa | 0 mm | - | 0 W/m² | - |
* Rain latest hour (hover to see other rain measurements)
** Current wind speed in m/s (hover to see current wind gust speed)